SCP
0 0 0 0 0 0 0 0 0 0 0 0 0 0 0 0 0 0 0 0 0 0 0 0 0 0 0 0 0 0 0 0 0 0 0 0 0 0 0 0 0 0 0
0 0 0 0 0 0 0 0 0 0 0 0 0 0 0 0 0 0 0 0 0 0 0 0 0 0 0 0 0 0 0 0 0 0 0 0 0 0 0 0 0 0 0
0 0 0 0 0 0 0 0 0 0 0 0 0 0 0 0 0 0 0 0 0 0 0 0 0 0 0 0 0 0 0 0 0 0 0 0 0 0 0 0 0 0 0
0 0 0 0 0 0 0 0 0 0 0 0 0 0 0 0 0 0 0 0 0 0 0 0 0 0 0 0 0 0 0 0 0 0 0 0 0 0 0 0 0 0 0
0 0 0 0 0 0 0 0 0 0 0 0 0 0 0 0 0 0 0 0 0 0 0 0 0 0 0 0 0 0 0 0 0 0 0 0 0 0 0 0 0 0 0
0 0 0 0 0 0 0 0 0 0 0 0 0 0 0 0 0 0 0 0 0 0 0 0 0 0 0 0 0 0 0 0 0 0 0 0 0 0 0 0 0 0 0
0 0 0 0 0 0 0 0 0 0 0 0 0 0 0 0 0 0 0 0 0 0 0 0 0 0 0 0 0 0 0 0 0 0 0 0 0 0 0 0 0 0 0
0 0 0 0 0 0 0 0 0 0 0 0 0 0 0 0 0 0 0 0 0 0 0 0 0 0 0 0 0 0 0 0 0 0 0 0 0 0 0 0 0 0 0
0 0 0 0 0 0 0 0 0 0 0 0 0 0 0 0 0 0 0 0 0 0 0 0 0 0 0 0 0 0 0 0 0 0 0 0 0 0 0 0 0 0 0
0 0 0 0 0 0 0 0 0 0 0 0 0 0 0 0 0 0 0 0 0 0 0 0 0 0 0 0 0 0 0 0 0 0 0 0 0 0 0 0 0 0 0
0 0 0 0 0 0 0 0 0 0 0 0 0 0 0 0 0 0 0 0 0 0 0 0 0 0 0 0 0 0 0 0 0 0 0 0 0 0 0 0 0 0 0
0 0 0 0 0 0 0 0 0 0 0 0 0 0 0 0 0 0 0 0 0 0 0 0 0 0 0 0 0 0 0 0 0 0 0 0 0 0 0 0 0 0 0
0 0 0 0 0 0 0 0 0 0 0 0 0 0 0 0 0 0 0 0 0 0 0 0 0 0 0 0 0 0 0 0 0 0 0 0 0 0 0 0 0 0 0
0 0 0 0 0 0 0 0 0 0 0 0 0 0 0 0 0 0 0 0 0 0 0 0 0 0 0 0 0 0 0 0 0 0 0 0 0 0 0 0 0 0 0
0 0 0 0 0 0 0 0 0 0 0 0 0 0 0 0 0 0 0 0 0 0 0 0 0 0 0 0 0 0 0 0 0 0 0 0 0 0 0 0 0 0 0
0 0 0 0 0 0 0 0 0 0 0 0 0 0 0 0 0 0 0 0 0 0 0 0 0 0 0 0 0 0 0 0 0 0 0 0 0 0 0 0 0 0 0
0 0 0 0 0 0 0 0 0 0 0 0 0 0 0 0 0 0 0 0 0 0 0 0 0 0 0 0 0 0 0 0 0 0 0 0 0 0 0 0 0 0 0
0 0 0 0 0 0 0 0 0 0 0 0 0 0 0 0 0 0 0 0 0 0 0 0 0 0 0 0 0 0 0 0 0 0 0 0 0 0 0 0 0 0 0
0 0 0 0 0 0 0 0 0 0 0 0 0 0 0 0 0 0 0 0 0 0 0 0 0 0 0 0 0 0 0 0 0 0 0 0 0 0 0 0 0 0 0
0 0 0 0 0 0 0 0 0 0 0 0 0 0 0 0 0 0 0 0 0 0 0 0 0 0 0 0 0 0 0 0 0 0 0 0 0 0 0 0 0 0 0
0 0 0 0 0 0 0 0 0 0 0 0 0 0 0 0 0 0 0 0 0 0 0 0 0 0 0 0 0 0 0 0 0 0 0 0 0 0 0 0 0 0 0
0 0 0 0 0 0 0 0 0 0 0 0 0 0 0 0 0 0 0 0 0 0 0 0 0 0 0 0 0 0 0 0 0 0 0 0 0 0 0 0 0 0 0
0 0 0 0 0 0 0 0 0 0 0 0 0 0 0 0 0 0 0 0 0 0 0 0 0 0 0 0 0 0 0 0 0 0 0 0 0 0 0 0 0 0 0
0 0 0 0 0 0 0 0 0 0 0 0 0 0 0 0 0 0 0 0 0 0 0 0 0 0 0 0 0 0 0 0 0 0 0 0 0 0 0 0 0 0 0
0 0 0 0 0 0 0 0 0 0 0 0 0 0 0 0 0 0 0 0 0 0 0 0 0 0 0 0 0 0 0 0 0 0 0 0 0 0 0 0 0 0 0
0 0 0 0 0 0 0 0 0 0 0 0 0 0 0 0 0 0 0 0 0 0 0 0 0 0 0 0 0 0 0 0 0 0 0 0 0 0 0 0 0 0 0
Wind_Speed
8 8 8 7 7 7 7 7 6 5 5 5 5 5 5 5 5 4 4 5 5 5 5 6 7 7 6 5 5 5 6 8 16 17 9 7 8 8 8 8 9 10 11
8 8 8 8 8 7 7 6 6 6 5 5 5 5 5 5 5 5 5 5 6 6 7 7 8 7 8 7 6 7 8 8 11 20 15 10 10 9 9 10 9 9 10
7 8 8 7 7 7 6 6 6 6 6 6 6 5 5 5 5 5 5 5 6 7 7 8 8 8 8 7 8 9 8 9 9 13 17 12 10 8 10 10 9 9 9
7 8 8 7 7 6 6 6 6 5 5 6 5 5 5 5 5 5 6 6 7 7 7 8 8 8 9 9 9 8 8 9 9 11 13 13 11 9 8 10 11 8 9
8 8 7 6 6 6 5 5 5 5 5 4 4 5 5 4 4 6 6 7 7 9 8 8 8 10 11 10 9 9 9 9 10 10 12 13 12 10 10 9 12 12 11
8 8 6 5 5 5 5 4 4 4 4 4 4 5 5 5 10 12 9 6 7 8 9 8 8 8 10 14 17 16 15 13 12 11 12 13 14 12 11 11 12 13 12
7 6 5 5 5 5 4 4 5 4 4 4 4 5 5 8 13 13 12 8 7 8 8 8 8 7 9 9 12 16 13 15 17 13 14 14 15 13 14 14 12 13 14
7 6 5 5 4 4 4 4 4 4 4 4 5 5 6 8 13 14 14 7 7 7 7 8 9 9 8 11 10 10 9 9 12 9 10 12 12 12 11 12 13 13 11
6 5 4 4 4 4 4 4 3 4 4 4 5 5 6 8 13 14 14 6 6 8 7 7 9 9 14 17 12 11 12 10 12 14 16 16 19 19 15 10 10 10 10
5 4 3 3 3 3 3 3 3 4 5 5 6 5 6 7 12 14 13 5 7 7 7 7 9 13 16 18 11 10 12 11 10 10 11 12 10 11 13 8 8 8 8
5 4 3 3 2 2 2 3 4 4 5 5 6 6 6 6 10 12 13 6 6 8 8 7 7 16 18 18 15 8 12 13 9 9 8 7 6 5 6 6 6 6 7
4 3 2 1 1 1 2 3 3 4 5 5 5 6 4 5 6 10 13 12 12 8 8 7 8 17 17 16 11 12 15 11 6 6 6 6 6 6 6 6 6 5 4
4 3 1 0 1 1 2 3 3 3 3 4 4 5 5 4 6 11 11 14 15 9 7 13 15 16 13 9 10 13 9 6 6 6 6 6 6 7 6 6 5 5 5
4 2 1 1 1 1 2 2 2 3 4 4 5 6 6 5 5 4 4 6 9 9 7 8 11 11 8 7 6 7 5 5 5 6 6 6 6 6 5 6 6 5 4
3 2 1 1 1 2 2 2 4 4 5 6 5 6 7 8 8 13 10 7 6 7 7 4 4 3 4 4 4 5 5 5 5 6 6 6 6 6 6 6 5 5 4
3 2 1 1 1 2 3 4 7 8 11 12 13 12 8 12 16 15 15 14 13 11 5 3 3 3 3 4 4 5 5 6 6 6 5 6 6 6 6 6 5 5 5
3 2 1 0 1 2 3 3 5 6 9 11 12 13 12 13 13 13 13 10 9 7 2 2 2 3 3 3 4 4 4 5 5 5 6 6 6 6 6 6 6 5 5
3 2 2 1 2 2 2 3 4 5 6 5 8 12 12 12 11 11 10 6 4 4 2 2 2 3 3 3 3 4 4 5 5 5 5 6 6 6 6 6 6 6 5
3 2 2 2 2 2 3 4 4 5 6 6 5 6 7 9 9 8 7 2 2 2 2 2 2 2 3 3 3 3 3 4 4 4 4 5 5 5 5 5 5 7 5
3 4 3 2 2 3 3 3 4 4 5 5 5 4 3 3 2 3 2 2 1 1 1 2 2 2 2 2 3 3 3 3 4 3 4 4 5 5 5 6 5 5 5
4 3 4 3 3 3 3 3 4 4 4 5 4 6 8 2 2 3 2 2 2 2 2 2 2 2 2 2 2 3 3 3 3 3 3 4 4 4 4 4 5 4 4
3 3 3 3 3 3 3 3 4 4 5 5 4 5 8 3 2 3 3 3 2 2 2 2 2 2 2 2 2 3 3 3 3 3 3 4 4 4 4 4 4 4 4
4 4 3 3 3 3 3 4 4 4 4 5 4 4 3 3 3 3 3 3 3 3 2 2 3 3 3 2 2 3 3 4 3 3 3 4 4 3 3 4 4 4 4
4 4 3 3 3 3 3 4 4 4 4 4 4 4 4 4 4 4 4 4 3 3 3 3 4 5 6 5 3 3 4 5 4 3 4 4 4 4 3 3 4 4 4
4 4 3 3 3 3 3 4 4 4 4 4 4 4 4 4 4 4 4 4 4 5 5 5 4 5 7 8 6 6 7 9 7 4 4 4 5 4 4 4 4 4 3
4 4 3 3 3 3 4 4 4 4 5 5 5 5 5 5 5 5 5 5 5 5 6 5 6 7 8 7 8 10 10 11 10 9 5 4 5 5 4 4 5 4 4
Wind_Direction
87 85 82 77 74 73 69 61 54 49 42 35 24 18 12 6 1 354 341 336 328 318 314 308 302 302 297 295 290 284 279 279 285 293 297 301 298 291 288 275 272 269 268
89 86 82 77 74 71 64 54 47 44 37 31 22 17 10 3 356 351 343 341 333 325 320 315 311 312 305 303 300 296 292 287 288 294 300 305 300 296 291 287 282 276 271
89 88 82 75 71 67 59 49 41 35 30 25 20 13 2 353 349 347 345 338 329 319 315 312 311 312 306 306 304 299 297 296 292 292 296 302 301 302 299 294 287 282 280
88 86 79 71 66 61 54 46 37 29 27 20 12 2 351 346 347 349 344 334 323 315 311 308 307 305 303 306 303 299 300 298 294 291 293 298 300 302 300 303 302 294 287
92 86 79 71 65 60 52 42 34 29 23 10 1 351 344 340 345 345 336 326 319 314 310 306 305 305 302 304 305 306 305 300 299 297 296 299 302 310 309 307 302 303 294
93 86 80 75 69 58 46 36 31 23 12 4 356 346 340 336 335 336 333 321 315 311 310 310 308 305 307 310 308 306 303 301 302 299 298 299 303 305 306 306 305 305 302
99 93 83 77 68 50 36 32 23 9 359 351 343 339 328 322 330 329 328 319 308 306 307 309 309 307 304 301 304 306 301 296 295 293 294 297 301 306 306 304 302 300 296
102 93 79 71 63 43 33 24 7 354 346 334 327 322 315 315 324 324 324 316 302 298 301 304 306 309 310 313 309 304 298 293 294 294 288 293 296 300 298 299 300 297 290
101 92 78 68 57 37 22 3 348 339 331 322 315 314 312 313 320 321 323 310 304 305 305 304 304 304 310 318 316 309 307 304 308 308 304 304 307 311 312 307 305 303 303
105 96 80 66 52 26 357 338 332 325 315 315 313 307 300 299 311 319 323 310 310 311 310 305 303 312 316 319 314 310 310 313 315 315 312 311 309 311 318 313 309 308 308
104 95 77 54 26 352 335 328 321 318 315 310 302 298 294 293 308 319 323 320 310 311 311 311 310 317 318 320 320 312 312 318 316 313 312 313 316 318 320 320 317 311 308
102 94 77 39 352 346 333 322 319 315 312 308 307 306 299 301 308 314 320 320 318 307 304 306 308 315 319 324 327 328 331 331 319 317 320 325 328 329 328 327 325 321 313
110 103 99 35 327 321 323 322 321 318 310 309 309 307 307 304 305 313 316 317 316 309 299 306 312 317 324 331 338 341 343 336 330 330 330 329 328 325 324 324 322 321 324
117 107 85 40 2 354 325 304 301 302 302 304 305 304 305 302 299 301 302 308 309 306 304 308 314 323 334 340 342 350 349 344 339 334 330 327 329 333 335 335 332 333 333
116 107 78 38 353 328 305 280 284 256 258 283 283 286 295 298 301 311 314 309 309 303 311 311 316 325 339 344 346 348 350 351 348 341 337 336 338 340 340 341 338 341 346
123 114 89 25 336 315 311 306 303 299 297 296 292 289 286 291 305 311 314 315 319 321 323 317 321 334 340 345 344 343 349 350 344 341 341 342 341 341 340 344 348 351 349
137 146 164 293 306 307 312 314 315 318 310 310 310 307 304 308 312 315 317 322 332 340 335 322 331 340 339 341 341 341 340 340 341 346 348 345 342 341 342 346 350 352 348
159 185 200 223 250 270 281 287 292 300 308 304 308 311 313 315 318 322 328 335 339 0 358 345 341 341 339 336 336 337 337 341 350 352 351 350 348 346 349 351 351 351 345
178 190 197 214 237 254 266 274 277 281 285 293 301 309 315 316 320 333 351 351 314 327 341 340 335 332 331 332 331 332 337 342 346 348 350 349 348 348 349 348 348 348 350
191 203 199 211 237 251 259 267 275 279 285 290 295 299 306 316 315 325 337 317 309 306 310 309 314 319 323 324 326 330 336 341 344 345 343 343 343 344 343 343 346 346 346
182 192 200 213 227 235 246 255 266 274 278 282 283 290 301 292 281 282 283 282 278 277 283 288 292 298 305 311 317 322 326 326 329 330 331 333 336 336 333 335 336 339 339
178 184 196 211 223 233 243 251 261 267 272 278 281 294 303 299 279 273 269 265 263 260 262 268 273 269 269 277 289 299 302 304 310 316 318 320 322 323 325 330 334 335 338
184 193 205 216 222 236 246 249 252 257 264 268 274 275 277 269 265 265 264 263 262 262 260 257 265 271 267 260 258 260 268 276 279 285 295 303 307 309 313 317 321 326 328
186 195 204 214 223 232 241 249 252 256 261 266 268 267 265 262 261 263 262 261 261 260 255 251 253 260 267 268 259 254 254 259 261 260 266 274 283 289 295 299 301 304 307
185 193 203 211 219 230 242 252 255 258 260 262 262 263 263 262 261 261 260 258 260 261 262 258 255 259 262 263 264 263 268 272 266 251 245 249 261 270 276 280 285 291 293
187 195 205 211 218 226 234 246 253 257 258 259 259 258 259 259 259 260 258 257 258 261 264 261 258 260 262 264 266 269 268 268 261 248 232 234 245 254 257 263 271 273 278